Retour au catalogue

STARLINK-33841

ActifCommunicationsVLEO
NORAD 63771·PAYLOAD·🇺🇸 United States

Lancé Apr 29, 2025 depuis Cape Canaveral Space Force Station

Loading…

Prochains Passages (prochaines 24 heures)

TLE

FraisSource: CelesTrak SupGP

Époque: Sep 15, 2026, 02:23 UTC

1 63771C 25089W   26258.09979167 -.00021450  00000+0 -77687-3 0  2588
2 63771  43.0025  55.4112 0001444 269.6309 207.9808 15.27591390    13

Suivez STARLINK-33841 en temps réel avec AllMySat

Download on the App Store